Retour au catalogue

OPS 8464

TRANSIT 5B-7

ActifNavigationPO
NORAD 1514·PAYLOAD·🇺🇸 United States

Lancé Aug 13, 1965 depuis Vandenberg Space Force Base

Loading…

Prochains Passages (prochaines 24 heures)

TLE

FraisSource: Space-Track

Époque: Sep 14, 2026, 08:23 UTC

1 01514U 65065F   26257.34971860  .00000057  00000-0  94677-4 0  9992
2 01514  89.9998 227.8790 0067837 269.7371 248.6629 13.35380815973166

Suivez OPS 8464 en temps réel avec AllMySat

Download on the App Store